| time (UTC) | temp F | wind direction | speed MPH | gust MPH | rain 1hr in | rain 24hr in | rain mn in | humidity % | barometer mb |
| 20260507093046 | 52 | 0 | 2.0 | 7.0 | 0.00 | 0.00 | 0.00 | 69 | 1010.4 |
| 20260507092546 | 52 | 337 | 7.0 | 7.0 | 0.00 | 0.00 | 0.00 | 69 | 1010.4 |
| 20260507092046 | 52 | 337 | 4.0 | 9.0 | 0.00 | 0.00 | 0.00 | 69 | 1010.2 |
| 20260507091546 | 51 | 0 | 3.0 | 6.0 | 0.00 | 0.00 | 0.00 | 69 | 1010.3 |
| 20260507091046 | 52 | 0 | 3.0 | 7.0 | 0.00 | 0.00 | 0.00 | 70 | 1010.3 |
| 20260507090546 | 51 | 0 | 3.0 | 7.0 | 0.00 | 0.00 | 0.00 | 70 | 1010.1 |
| 20260507090046 | 51 | 22 | 0.0 | 6.0 | 0.00 | 0.00 | 0.00 | 69 | 1010.2 |
| 20260507085546 | 52 | 337 | 5.0 | 7.0 | 0.00 | 0.00 | 0.00 | 69 | 1010.0 |
| 20260507085046 | 52 | 22 | 4.0 | 7.0 | 0.00 | 0.00 | 0.00 | 71 | 1010.0 |
| 20260507084546 | 52 | 0 | 2.0 | 8.0 | 0.00 | 0.00 | 0.00 | 72 | 1009.8 |
| 20260507084046 | 51 | 0 | 6.0 | 8.0 | 0.00 | 0.00 | 0.00 | 73 | 1009.9 |
| 20260507083546 | 50 | 0 | 7.0 | 8.0 | 0.00 | 0.00 | 0.00 | 74 | 1009.9 |
| 20260507083047 | 50 | 0 | 4.0 | 12.0 | 0.00 | 0.00 | 0.00 | 74 | 1009.7 |
| 20260507082546 | 50 | 337 | 10.0 | 10.0 | 0.00 | 0.00 | 0.00 | 74 | 1009.9 |
| 20260507082046 | 50 | 0 | 7.0 | 12.0 | 0.00 | 0.00 | 0.00 | 74 | 1009.9 |
| 20260507081546 | 50 | 22 | 6.0 | 10.0 | 0.00 | 0.00 | 0.00 | 75 | 1009.8 |
| 20260507081046 | 50 | 0 | 8.0 | 10.0 | 0.00 | 0.00 | 0.00 | 76 | 1009.7 |
| 20260507080546 | 49 | 337 | 7.0 | 12.0 | 0.00 | 0.00 | 0.00 | 77 | 1009.7 |
| 20260507080046 | 48 | 0 | 9.0 | 10.0 | 0.00 | 0.00 | 0.00 | 79 | 1009.7 |
| 20260507075546 | 48 | 337 | 10.0 | 17.0 | 0.00 | 0.00 | 0.00 | 79 | 1009.5 |
| 20260507075046 | 48 | 337 | 10.0 | 17.0 | 0.00 | 0.00 | 0.00 | 80 | 1009.6 |
| 20260507074547 | 47 | 0 | 9.0 | 14.0 | 0.00 | 0.00 | 0.00 | 82 | 1009.5 |
| 20260507074047 | 47 | 337 | 11.0 | 12.0 | 0.00 | 0.00 | 0.00 | 83 | 1009.4 |
| 20260507073547 | 47 | 337 | 8.0 | 9.0 | 0.00 | 0.00 | 0.00 | 85 | 1009.4 |
| 20260507073047 | 46 | 0 | 7.0 | 11.0 | 0.00 | 0.00 | 0.00 | 86 | 1009.4 |
| 20260507072547 | 46 | 337 | 11.0 | 14.0 | 0.00 | 0.00 | 0.00 | 87 | 1009.3 |
| 20260507072047 | 45 | 337 | 8.0 | 8.0 | 0.00 | 0.00 | 0.00 | 88 | 1009.3 |
| 20260507071547 | 45 | 337 | 9.0 | 12.0 | 0.00 | 0.00 | 0.00 | 88 | 1009.2 |
| 20260507071047 | 44 | 337 | 6.0 | 12.0 | 0.00 | 0.00 | 0.00 | 89 | 1009.1 |
| 20260507070547 | 44 | 337 | 10.0 | 13.0 | 0.00 | 0.00 | 0.00 | 89 | 1009.1 |
| 20260507070047 | 44 | 0 | 9.0 | 16.0 | 0.00 | 0.00 | 0.00 | 89 | 1009.1 |
| 20260507065547 | 44 | 337 | 10.0 | 10.0 | 0.00 | 0.00 | 0.00 | 90 | 1009.0 |
| 20260507065047 | 43 | 337 | 9.0 | 11.0 | 0.00 | 0.00 | 0.00 | 90 | 1009.2 |
| 20260507064547 | 43 | 337 | 10.0 | 12.0 | 0.00 | 0.00 | 0.00 | 91 | 1009.2 |
| 20260507064047 | 43 | 337 | 10.0 | 12.0 | 0.00 | 0.00 | 0.00 | 91 | 1009.1 |
| 20260507063547 | 43 | 0 | 8.0 | 11.0 | 0.00 | 0.00 | 0.00 | 92 | 1009.0 |
| 20260507063047 | 43 | 337 | 7.0 | 10.0 | 0.00 | 0.00 | 0.00 | 93 | 1009.2 |
| 20260507062547 | 43 | 337 | 9.0 | 11.0 | 0.00 | 0.00 | 0.00 | 93 | 1009.1 |
| 20260507062047 | 42 | 337 | 7.0 | 12.0 | 0.00 | 0.00 | 0.00 | 93 | 1009.0 |
| 20260507061547 | 42 | 0 | 4.0 | 7.0 | 0.00 | 0.00 | 0.00 | 96 | 1009.0 |
| 20260507061047 | 42 | 337 | 6.0 | 9.0 | 0.00 | 0.00 | 0.00 | 96 | 1009.0 |
| 20260507060547 | 42 | 0 | 7.0 | 9.0 | 0.00 | 0.02 | 0.00 | 96 | 1009.0 |
| 20260507060047 | 42 | 337 | 6.0 | 8.0 | 0.00 | 0.02 | 0.00 | 96 | 1009.0 |
| 20260507055547 | 42 | 337 | 8.0 | 11.0 | 0.00 | 0.02 | 0.00 | 96 | 1008.8 |
| 20260507055047 | 42 | 0 | 10.0 | 10.0 | 0.00 | 0.02 | 0.00 | 96 | 1008.8 |
| 20260507054547 | 42 | 0 | 6.0 | 10.0 | 0.00 | 0.02 | 0.00 | 96 | 1008.6 |
| 20260507054047 | 42 | 337 | 5.0 | 11.0 | 0.00 | 0.02 | 0.00 | 96 | 1008.8 |
| 20260507053547 | 41 | 0 | 5.0 | 8.0 | 0.00 | 0.02 | 0.00 | 96 | 1008.7 |
| 20260507053047 | 41 | 0 | 7.0 | 9.0 | 0.00 | 0.02 | 0.00 | 96 | 1008.6 |
| 20260507052547 | 41 | 0 | 3.0 | 9.0 | 0.00 | 0.02 | 0.00 | 96 | 1008.5 |
| 20260507052047 | 41 | 0 | 6.0 | 10.0 | 0.00 | 0.02 | 0.00 | 96 | 1008.5 |
| 20260507051547 | 41 | 337 | 7.0 | 10.0 | 0.00 | 0.02 | 0.00 | 96 | 1008.3 |
| 20260507051047 | 41 | 337 | 7.0 | 10.0 | 0.00 | 0.02 | 0.00 | 96 | 1008.2 |
| 20260507050547 | 41 | 337 | 10.0 | 10.0 | 0.00 | 0.04 | 0.00 | 96 | 1008.1 |
| 20260507050047 | 41 | 0 | 6.0 | 10.0 | 0.00 | 0.04 | 0.00 | 96 | 1008.0 |
| 20260507045547 | 41 | 0 | 6.0 | 10.0 | 0.00 | 0.04 | 0.00 | 96 | 1008.0 |
| 20260507045047 | 41 | 0 | 8.0 | 10.0 | 0.00 | 0.04 | 0.00 | 96 | 1007.9 |
| 20260507044547 | 41 | 0 | 6.0 | 8.0 | 0.00 | 0.04 | 0.00 | 96 | 1008.0 |
| 20260507044047 | 41 | 0 | 6.0 | 10.0 | 0.00 | 0.04 | 0.00 | 96 | 1007.8 |
| 20260507043547 | 41 | 337 | 8.0 | 10.0 | 0.00 | 0.04 | 0.00 | 96 | 1008.0 |
| 20260507043047 | 41 | 0 | 7.0 | 8.0 | 0.00 | 0.04 | 0.00 | 96 | 1008.0 |
| 20260507042547 | 41 | 337 | 7.0 | 8.0 | 0.00 | 0.04 | 0.00 | 96 | 1007.9 |
| 20260507042047 | 41 | 337 | 5.0 | 9.0 | 0.00 | 0.04 | 0.00 | 96 | 1007.9 |
| 20260507041547 | 41 | 337 | 9.0 | 9.0 | 0.00 | 0.04 | 0.00 | 96 | 1007.9 |
| 20260507041047 | 41 | 337 | 8.0 | 10.0 | 0.00 | 0.04 | 0.00 | 96 | 1007.7 |
| 20260507040547 | 41 | 337 | 6.0 | 9.0 | 0.00 | 0.04 | 0.00 | 96 | 1007.7 |
| 20260507040047 | 41 | 0 | 4.0 | 7.0 | 0.00 | 0.04 | 0.00 | 96 | 1007.7 |
| 20260507035547 | 41 | 337 | 6.0 | 7.0 | 0.00 | 0.04 | 0.00 | 96 | 1007.6 |
| 20260507035047 | 41 | 337 | 6.0 | 9.0 | 0.00 | 0.04 | 0.00 | 96 | 1007.5 |
| 20260507034548 | 41 | 0 | 5.0 | 9.0 | 0.00 | 0.04 | 0.00 | 96 | 1007.6 |
| 20260507034047 | 41 | 0 | 4.0 | 6.0 | 0.00 | 0.04 | 0.00 | 96 | 1007.6 |
| 20260507033547 | 41 | 0 | 3.0 | 7.0 | 0.00 | 0.04 | 0.00 | 96 | 1007.5 |
| 20260507033047 | 41 | 337 | 6.0 | 9.0 | 0.00 | 0.04 | 0.00 | 96 | 1007.5 |
| 20260507032547 | 41 | 337 | 6.0 | 7.0 | 0.00 | 0.04 | 0.00 | 96 | 1007.3 |
| 20260507032047 | 41 | 337 | 4.0 | 9.0 | 0.00 | 0.04 | 0.00 | 96 | 1007.6 |
| 20260507031547 | 41 | 315 | 5.0 | 8.0 | 0.00 | 0.04 | 0.00 | 96 | 1007.5 |
| 20260507031047 | 41 | 0 | 5.0 | 8.0 | 0.00 | 0.04 | 0.00 | 96 | 1007.4 |
| 20260507030547 | 41 | 0 | 4.0 | 7.0 | 0.00 | 0.06 | 0.00 | 96 | 1007.4 |
| 20260507030047 | 41 | 337 | 4.0 | 8.0 | 0.00 | 0.06 | 0.00 | 96 | 1007.3 |
| 20260507025547 | 41 | 0 | 5.0 | 6.0 | 0.00 | 0.06 | 0.00 | 96 | 1007.2 |
| 20260507025047 | 41 | 337 | 5.0 | 8.0 | 0.00 | 0.06 | 0.00 | 96 | 1007.2 |
| 20260507024547 | 41 | 337 | 3.0 | 7.0 | 0.00 | 0.06 | 0.00 | 96 | 1007.2 |
| 20260507024047 | 41 | 337 | 3.0 | 6.0 | 0.00 | 0.06 | 0.00 | 96 | 1007.3 |
| 20260507023547 | 41 | 0 | 6.0 | 6.0 | 0.00 | 0.06 | 0.00 | 96 | 1007.3 |
| 20260507023047 | 41 | 337 | 4.0 | 8.0 | 0.00 | 0.06 | 0.00 | 96 | 1007.2 |
| 20260507022547 | 41 | 0 | 6.0 | 7.0 | 0.00 | 0.06 | 0.00 | 96 | 1007.2 |
| 20260507022047 | 41 | 337 | 5.0 | 7.0 | 0.00 | 0.06 | 0.00 | 96 | 1007.2 |
| 20260507021547 | 41 | 337 | 3.0 | 7.0 | 0.00 | 0.06 | 0.00 | 96 | 1007.2 |
| 20260507021047 | 41 | 337 | 6.0 | 7.0 | 0.00 | 0.06 | 0.00 | 96 | 1007.1 |
| 20260507020547 | 41 | 337 | 4.0 | 8.0 | 0.00 | 0.06 | 0.00 | 96 | 1007.1 |
| 20260507020047 | 42 | 0 | 6.0 | 8.0 | 0.00 | 0.06 | 0.00 | 96 | 1007.1 |
| 20260507015547 | 41 | 337 | 5.0 | 7.0 | 0.00 | 0.06 | 0.00 | 96 | 1007.1 |
| 20260507015047 | 41 | 337 | 3.0 | 6.0 | 0.00 | 0.06 | 0.00 | 96 | 1007.0 |
| 20260507014547 | 42 | 337 | 6.0 | 8.0 | 0.00 | 0.06 | 0.00 | 96 | 1007.0 |
| 20260507014047 | 41 | 337 | 4.0 | 8.0 | 0.00 | 0.06 | 0.00 | 96 | 1007.0 |
| 20260507013547 | 42 | 337 | 4.0 | 6.0 | 0.00 | 0.06 | 0.00 | 96 | 1007.0 |
| 20260507013047 | 42 | 315 | 4.0 | 7.0 | 0.00 | 0.06 | 0.00 | 96 | 1007.0 |
| 20260507012547 | 42 | 337 | 6.0 | 8.0 | 0.00 | 0.06 | 0.00 | 96 | 1007.0 |
| 20260507012048 | 42 | 337 | 7.0 | 8.0 | 0.00 | 0.06 | 0.00 | 96 | 1007.1 |
| 20260507011547 | 42 | 337 | 6.0 | 8.0 | 0.00 | 0.06 | 0.00 | 96 | 1007.0 |
| 20260507011047 | 42 | 337 | 5.0 | 7.0 | 0.00 | 0.06 | 0.00 | 96 | 1007.0 |
| 20260507010547 | 42 | 337 | 3.0 | 9.0 | 0.00 | 0.08 | 0.00 | 96 | 1007.0 |
| 20260507010047 | 42 | 315 | 4.0 | 6.0 | 0.00 | 0.08 | 0.00 | 96 | 1006.7 |
| 20260507005547 | 42 | 337 | 2.0 | 7.0 | 0.00 | 0.08 | 0.00 | 96 | 1006.9 |
| 20260507005047 | 42 | 315 | 4.0 | 6.0 | 0.00 | 0.08 | 0.00 | 96 | 1006.7 |
| 20260507004547 | 42 | 337 | 6.0 | 6.0 | 0.00 | 0.08 | 0.00 | 96 | 1006.8 |
| 20260507004047 | 42 | 315 | 6.0 | 6.0 | 0.00 | 0.08 | 0.00 | 96 | 1006.8 |
| 20260507003547 | 42 | 337 | 2.0 | 5.0 | 0.00 | 0.08 | 0.00 | 96 | 1006.6 |
| 20260507003047 | 42 | 337 | 4.0 | 6.0 | 0.00 | 0.08 | 0.00 | 96 | 1006.6 |
| 20260507002547 | 42 | 337 | 3.0 | 6.0 | 0.00 | 0.08 | 0.00 | 96 | 1006.7 |
| 20260507002048 | 42 | 337 | 4.0 | 5.0 | 0.00 | 0.08 | 0.00 | 93 | 1006.6 |
| 20260507001548 | 42 | 0 | 2.0 | 5.0 | 0.00 | 0.08 | 0.00 | 96 | 1006.6 |
| 20260507001048 | 42 | 337 | 2.0 | 8.0 | 0.00 | 0.08 | 0.00 | 96 | 1006.5 |
| 20260507000548 | 42 | 337 | 7.0 | 9.0 | 0.00 | 0.20 | 0.00 | 93 | 1006.5 |
| 20260507000048 | 42 | 337 | 6.0 | 8.0 | 0.00 | 0.20 | 0.00 | 93 | 1006.4 |
| 20260506235548 | 42 | 337 | 5.0 | 8.0 | 0.00 | 0.20 | 0.00 | 93 | 1006.6 |
| 20260506235048 | 42 | 0 | 7.0 | 9.0 | 0.00 | 0.20 | 0.00 | 93 | 1006.4 |
| 20260506234548 | 42 | 0 | 5.0 | 7.0 | 0.00 | 0.20 | 0.00 | 93 | 1006.5 |
| 20260506234048 | 42 | 337 | 5.0 | 7.0 | 0.00 | 0.20 | 0.00 | 93 | 1006.5 |
| 20260506233548 | 42 | 0 | 6.0 | 7.0 | 0.00 | 0.20 | 0.00 | 93 | 1006.6 |
| 20260506233048 | 42 | 337 | 7.0 | 7.0 | 0.00 | 0.20 | 0.00 | 93 | 1006.5 |
| 20260506232548 | 42 | 0 | 3.0 | 7.0 | 0.00 | 0.20 | 0.00 | 93 | 1006.6 |
| 20260506232048 | 42 | 337 | 5.0 | 6.0 | 0.00 | 0.20 | 0.00 | 93 | 1006.6 |
| 20260506231548 | 42 | 0 | 4.0 | 8.0 | 0.00 | 0.20 | 0.00 | 93 | 1006.6 |
| 20260506231048 | 42 | 337 | 6.0 | 8.0 | 0.00 | 0.20 | 0.00 | 92 | 1006.6 |
| 20260506230548 | 42 | 0 | 7.0 | 9.0 | 0.00 | 0.22 | 0.00 | 92 | 1006.3 |
| 20260506230048 | 42 | 337 | 8.0 | 10.0 | 0.00 | 0.22 | 0.00 | 92 | 1006.4 |
| 20260506225548 | 42 | 337 | 8.0 | 10.0 | 0.00 | 0.22 | 0.00 | 92 | 1006.6 |
| 20260506225048 | 42 | 0 | 3.0 | 9.0 | 0.00 | 0.22 | 0.00 | 92 | 1006.4 |
| 20260506224548 | 42 | 0 | 9.0 | 9.0 | 0.00 | 0.22 | 0.00 | 92 | 1006.4 |
| 20260506224048 | 42 | 0 | 6.0 | 9.0 | 0.00 | 0.22 | 0.00 | 92 | 1006.5 |
| 20260506223548 | 42 | 0 | 4.0 | 6.0 | 0.00 | 0.22 | 0.00 | 92 | 1006.6 |
| 20260506223048 | 42 | 0 | 5.0 | 8.0 | 0.00 | 0.22 | 0.00 | 92 | 1006.4 |
| 20260506222548 | 42 | 0 | 7.0 | 9.0 | 0.00 | 0.22 | 0.00 | 92 | 1006.3 |
| 20260506222048 | 42 | 337 | 9.0 | 9.0 | 0.00 | 0.22 | 0.00 | 92 | 1006.4 |
| 20260506221548 | 42 | 337 | 8.0 | 8.0 | 0.00 | 0.22 | 0.00 | 92 | 1006.2 |
| 20260506221048 | 42 | 337 | 4.0 | 7.0 | 0.00 | 0.22 | 0.00 | 92 | 1006.4 |
| 20260506220548 | 42 | 337 | 4.0 | 7.0 | 0.00 | 0.22 | 0.00 | 92 | 1006.1 |
| 20260506220048 | 42 | 337 | 5.0 | 10.0 | 0.00 | 0.22 | 0.00 | 92 | 1006.0 |
| 20260506215548 | 42 | 337 | 8.0 | 9.0 | 0.00 | 0.22 | 0.00 | 92 | 1006.0 |
| 20260506215048 | 42 | 337 | 8.0 | 10.0 | 0.00 | 0.22 | 0.00 | 92 | 1006.0 |
| 20260506214548 | 42 | 337 | 5.0 | 8.0 | 0.00 | 0.22 | 0.00 | 92 | 1005.8 |
| 20260506214048 | 42 | 337 | 6.0 | 10.0 | 0.00 | 0.22 | 0.00 | 92 | 1005.7 |
| 20260506213548 | 42 | 0 | 5.0 | 9.0 | 0.00 | 0.22 | 0.00 | 91 | 1005.8 |
| 20260506213048 | 42 | 0 | 9.0 | 10.0 | 0.00 | 0.22 | 0.00 | 91 | 1005.6 |
| 20260506212548 | 42 | 0 | 7.0 | 12.0 | 0.00 | 0.22 | 0.00 | 91 | 1005.5 |
| 20260506212048 | 42 | 315 | 7.0 | 10.0 | 0.00 | 0.22 | 0.00 | 91 | 1005.5 |
| 20260506211548 | 42 | 337 | 10.0 | 12.0 | 0.00 | 0.22 | 0.00 | 91 | 1005.3 |
| 20260506211048 | 42 | 0 | 10.0 | 11.0 | 0.00 | 0.22 | 0.00 | 91 | 1005.3 |
| 20260506210548 | 42 | 337 | 10.0 | 13.0 | 0.00 | 0.26 | 0.00 | 91 | 1005.4 |
| 20260506210048 | 42 | 337 | 15.0 | 15.0 | 0.00 | 0.26 | 0.00 | 91 | 1005.4 |
| 20260506205548 | 42 | 337 | 12.0 | 13.0 | 0.00 | 0.26 | 0.00 | 91 | 1005.6 |
| 20260506205048 | 42 | 0 | 12.0 | 16.0 | 0.00 | 0.26 | 0.00 | 91 | 1005.4 |
| 20260506204548 | 42 | 0 | 11.0 | 15.0 | 0.00 | 0.26 | 0.00 | 91 | 1005.5 |
| 20260506204048 | 42 | 0 | 12.0 | 14.0 | 0.00 | 0.26 | 0.00 | 91 | 1005.5 |
| 20260506203548 | 43 | 337 | 14.0 | 14.0 | 0.00 | 0.26 | 0.00 | 90 | 1005.4 |
| 20260506203048 | 43 | 0 | 9.0 | 9.0 | 0.00 | 0.26 | 0.00 | 90 | 1005.5 |
| 20260506202548 | 43 | 0 | 8.0 | 8.0 | 0.00 | 0.26 | 0.00 | 90 | 1005.6 |
| 20260506202048 | 43 | 0 | 6.0 | 8.0 | 0.00 | 0.26 | 0.00 | 90 | 1005.6 |
| 20260506201548 | 43 | 0 | 6.0 | 10.0 | 0.00 | 0.26 | 0.00 | 90 | 1005.5 |
| 20260506201048 | 43 | 337 | 10.0 | 11.0 | 0.00 | 0.26 | 0.00 | 90 | 1005.4 |
| 20260506200548 | 43 | 0 | 7.0 | 10.0 | 0.00 | 0.26 | 0.00 | 90 | 1005.3 |
| 20260506200048 | 43 | 22 | 9.0 | 12.0 | 0.00 | 0.26 | 0.00 | 90 | 1005.3 |
| 20260506195548 | 43 | 337 | 6.0 | 9.0 | 0.00 | 0.26 | 0.00 | 89 | 1005.3 |
| 20260506195048 | 43 | 0 | 7.0 | 11.0 | 0.00 | 0.26 | 0.00 | 90 | 1005.2 |
| 20260506194548 | 43 | 0 | 10.0 | 11.0 | 0.00 | 0.26 | 0.00 | 89 | 1005.1 |
| 20260506194048 | 43 | 0 | 9.0 | 12.0 | 0.00 | 0.26 | 0.00 | 89 | 1005.0 |
| 20260506193548 | 43 | 0 | 6.0 | 12.0 | 0.00 | 0.26 | 0.00 | 89 | 1005.0 |
| 20260506193048 | 43 | 337 | 9.0 | 12.0 | 0.00 | 0.26 | 0.00 | 89 | 1004.9 |
| 20260506192548 | 43 | 337 | 8.0 | 11.0 | 0.00 | 0.26 | 0.00 | 89 | 1004.9 |
| 20260506192048 | 43 | 337 | 6.0 | 10.0 | 0.00 | 0.26 | 0.00 | 89 | 1004.8 |
| 20260506191548 | 43 | 0 | 5.0 | 9.0 | 0.00 | 0.26 | 0.00 | 88 | 1004.9 |
| 20260506191048 | 43 | 0 | 5.0 | 12.0 | 0.00 | 0.26 | 0.00 | 88 | 1004.6 |
| 20260506190548 | 44 | 0 | 9.0 | 13.0 | 0.00 | 0.30 | 0.00 | 88 | 1004.5 |
| 20260506190048 | 44 | 337 | 8.0 | 12.0 | 0.00 | 0.30 | 0.00 | 88 | 1004.4 |
| 20260506185548 | 44 | 337 | 7.0 | 12.0 | 0.00 | 0.30 | 0.00 | 88 | 1004.3 |
| 20260506185048 | 44 | 337 | 11.0 | 12.0 | 0.00 | 0.30 | 0.00 | 87 | 1004.2 |
| 20260506184548 | 44 | 337 | 9.0 | 15.0 | 0.00 | 0.30 | 0.00 | 87 | 1004.2 |
| 20260506184048 | 44 | 0 | 7.0 | 18.0 | 0.00 | 0.30 | 0.00 | 87 | 1004.1 |
| 20260506183548 | 44 | 337 | 9.0 | 14.0 | 0.00 | 0.30 | 0.00 | 87 | 1004.1 |
| 20260506183048 | 44 | 0 | 14.0 | 15.0 | 0.00 | 0.30 | 0.00 | 87 | 1004.0 |
| 20260506182548 | 44 | 0 | 9.0 | 15.0 | 0.00 | 0.30 | 0.00 | 86 | 1003.9 |
| 20260506182048 | 44 | 337 | 13.0 | 14.0 | 0.00 | 0.30 | 0.00 | 86 | 1004.0 |
| 20260506181548 | 44 | 337 | 9.0 | 15.0 | 0.00 | 0.30 | 0.00 | 86 | 1003.8 |
| 20260506181048 | 45 | 337 | 15.0 | 15.0 | 0.00 | 0.30 | 0.00 | 86 | 1004.0 |
| 20260506180548 | 45 | 0 | 9.0 | 16.0 | 0.00 | 0.30 | 0.00 | 85 | 1003.9 |
| 20260506180048 | 45 | 0 | 11.0 | 13.0 | 0.00 | 0.30 | 0.00 | 85 | 1004.1 |
| 20260506175548 | 45 | 0 | 11.0 | 14.0 | 0.00 | 0.30 | 0.00 | 85 | 1004.0 |
| 20260506175048 | 45 | 0 | 8.0 | 13.0 | 0.00 | 0.30 | 0.00 | 85 | 1003.9 |
| 20260506174548 | 45 | 0 | 11.0 | 15.0 | 0.00 | 0.30 | 0.00 | 85 | 1003.9 |
| 20260506174048 | 45 | 0 | 14.0 | 14.0 | 0.00 | 0.30 | 0.00 | 85 | 1003.8 |
| 20260506173548 | 46 | 0 | 8.0 | 13.0 | 0.00 | 0.30 | 0.00 | 85 | 1003.9 |
| 20260506173048 | 46 | 337 | 13.0 | 14.0 | 0.00 | 0.30 | 0.00 | 84 | 1003.8 |
| 20260506172548 | 46 | 337 | 10.0 | 12.0 | 0.00 | 0.30 | 0.00 | 84 | 1003.8 |
| 20260506172048 | 46 | 337 | 12.0 | 13.0 | 0.00 | 0.30 | 0.00 | 84 | 1004.0 |
| 20260506171548 | 46 | 337 | 12.0 | 12.0 | 0.00 | 0.30 | 0.00 | 84 | 1003.9 |
| 20260506171049 | 46 | 337 | 10.0 | 12.0 | 0.00 | 0.30 | 0.00 | 84 | 1003.9 |
| 20260506170549 | 47 | 337 | 11.0 | 12.0 | 0.00 | 0.32 | 0.00 | 84 | 1003.9 |
| 20260506170049 | 47 | 0 | 8.0 | 10.0 | 0.00 | 0.32 | 0.00 | 82 | 1003.9 |
| 20260506165549 | 47 | 0 | 9.0 | 14.0 | 0.00 | 0.32 | 0.00 | 82 | 1003.9 |
| 20260506165049 | 47 | 337 | 12.0 | 13.0 | 0.00 | 0.32 | 0.00 | 81 | 1003.8 |
| 20260506164549 | 47 | 337 | 11.0 | 13.0 | 0.00 | 0.32 | 0.00 | 80 | 1003.7 |
| 20260506164049 | 47 | 0 | 13.0 | 17.0 | 0.00 | 0.32 | 0.00 | 80 | 1003.8 |
| 20260506163549 | 48 | 0 | 8.0 | 16.0 | 0.00 | 0.32 | 0.00 | 80 | 1003.7 |
| 20260506163049 | 48 | 337 | 10.0 | 15.0 | 0.00 | 0.32 | 0.00 | 81 | 1003.6 |
| 20260506162549 | 48 | 0 | 7.0 | 14.0 | 0.00 | 0.32 | 0.00 | 80 | 1003.7 |
| 20260506162049 | 48 | 0 | 10.0 | 13.0 | 0.00 | 0.32 | 0.00 | 81 | 1003.6 |
| 20260506161549 | 49 | 337 | 10.0 | 16.0 | 0.00 | 0.32 | 0.00 | 80 | 1003.7 |
| 20260506161049 | 48 | 337 | 11.0 | 13.0 | 0.00 | 0.32 | 0.00 | 81 | 1003.7 |
| 20260506160549 | 49 | 0 | 13.0 | 15.0 | 0.00 | 0.34 | 0.00 | 82 | 1003.5 |
| 20260506160049 | 49 | 0 | 11.0 | 17.0 | 0.00 | 0.34 | 0.00 | 81 | 1003.7 |
| 20260506155549 | 49 | 337 | 17.0 | 17.0 | 0.00 | 0.34 | 0.00 | 82 | 1003.6 |
| 20260506155049 | 49 | 0 | 11.0 | 16.0 | 0.00 | 0.34 | 0.00 | 82 | 1003.5 |
| 20260506154549 | 49 | 337 | 13.0 | 13.0 | 0.00 | 0.34 | 0.00 | 82 | 1003.5 |
| 20260506154049 | 49 | 337 | 10.0 | 14.0 | 0.00 | 0.34 | 0.00 | 83 | 1003.3 |
| 20260506153549 | 49 | 0 | 13.0 | 17.0 | 0.00 | 0.34 | 0.00 | 83 | 1003.3 |
| 20260506153049 | 49 | 337 | 7.0 | 16.0 | 0.00 | 0.34 | 0.00 | 84 | 1003.4 |
| 20260506152549 | 49 | 337 | 13.0 | 16.0 | 0.00 | 0.34 | 0.00 | 85 | 1003.4 |
| 20260506152050 | 48 | 337 | 14.0 | 14.0 | 0.00 | 0.34 | 0.00 | 86 | 1003.3 |
| 20260506151549 | 47 | 337 | 11.0 | 16.0 | 0.00 | 0.34 | 0.00 | 85 | 1003.3 |
| 20260506151049 | 47 | 337 | 8.0 | 18.0 | 0.00 | 0.34 | 0.00 | 85 | 1003.4 |
| 20260506150549 | 48 | 315 | 9.0 | 12.0 | 0.00 | 0.36 | 0.00 | 85 | 1003.3 |
| 20260506150049 | 48 | 337 | 8.0 | 11.0 | 0.00 | 0.36 | 0.00 | 84 | 1003.3 |
| 20260506145549 | 48 | 337 | 9.0 | 14.0 | 0.00 | 0.36 | 0.00 | 85 | 1003.3 |
| 20260506145049 | 48 | 0 | 9.0 | 16.0 | 0.00 | 0.36 | 0.00 | 85 | 1003.4 |
| 20260506144549 | 48 | 337 | 16.0 | 16.0 | 0.00 | 0.36 | 0.00 | 85 | 1003.3 |
| 20260506144049 | 49 | 0 | 11.0 | 15.0 | 0.00 | 0.36 | 0.00 | 84 | 1003.2 |
| 20260506143549 | 49 | 0 | 10.0 | 14.0 | 0.00 | 0.36 | 0.00 | 84 | 1003.3 |
| 20260506143049 | 49 | 337 | 11.0 | 12.0 | 0.00 | 0.36 | 0.00 | 85 | 1003.3 |
| 20260506142549 | 49 | 0 | 11.0 | 14.0 | 0.00 | 0.36 | 0.00 | 86 | 1003.3 |
| 20260506142049 | 49 | 337 | 9.0 | 17.0 | 0.00 | 0.36 | 0.00 | 87 | 1003.4 |
| 20260506141549 | 48 | 22 | 10.0 | 13.0 | 0.00 | 0.36 | 0.00 | 89 | 1003.3 |
| 20260506141049 | 47 | 0 | 8.0 | 11.0 | 0.00 | 0.36 | 0.00 | 89 | 1003.3 |
| 20260506140549 | 47 | 0 | 6.0 | 14.0 | 0.00 | 0.40 | 0.00 | 89 | 1003.3 |
| 20260506140049 | 47 | 337 | 13.0 | 16.0 | 0.00 | 0.40 | 0.00 | 90 | 1003.2 |
| 20260506135549 | 47 | 337 | 11.0 | 15.0 | 0.00 | 0.40 | 0.00 | 90 | 1003.3 |
| 20260506135049 | 48 | 337 | 13.0 | 13.0 | 0.00 | 0.40 | 0.00 | 90 | 1003.3 |
| 20260506134549 | 48 | 337 | 7.0 | 11.0 | 0.00 | 0.40 | 0.00 | 90 | 1003.2 |
| 20260506134049 | 48 | 337 | 8.0 | 15.0 | 0.00 | 0.40 | 0.00 | 90 | 1003.2 |
| 20260506133549 | 48 | 337 | 10.0 | 11.0 | 0.00 | 0.40 | 0.00 | 90 | 1003.2 |
| 20260506133049 | 47 | 337 | 8.0 | 12.0 | 0.00 | 0.40 | 0.00 | 90 | 1003.2 |
| 20260506132549 | 47 | 0 | 8.0 | 13.0 | 0.00 | 0.40 | 0.00 | 89 | 1003.0 |
| 20260506132049 | 47 | 0 | 10.0 | 14.0 | 0.00 | 0.40 | 0.00 | 89 | 1003.1 |
| 20260506131549 | 48 | 337 | 8.0 | 12.0 | 0.00 | 0.40 | 0.00 | 89 | 1003.1 |
| 20260506131049 | 48 | 337 | 6.0 | 14.0 | 0.00 | 0.40 | 0.00 | 89 | 1003.2 |
| 20260506130549 | 48 | 315 | 7.0 | 14.0 | 0.00 | 0.55 | 0.00 | 90 | 1003.2 |
| 20260506130049 | 48 | 337 | 5.0 | 12.0 | 0.00 | 0.55 | 0.00 | 90 | 1003.1 |
| 20260506125549 | 48 | 337 | 8.0 | 12.0 | 0.00 | 0.55 | 0.00 | 90 | 1002.8 |
| 20260506125049 | 47 | 337 | 8.0 | 10.0 | 0.00 | 0.55 | 0.00 | 90 | 1002.9 |
| 20260506124549 | 47 | 337 | 8.0 | 10.0 | 0.00 | 0.55 | 0.00 | 90 | 1002.9 |
| 20260506124049 | 47 | 337 | 7.0 | 11.0 | 0.00 | 0.55 | 0.00 | 89 | 1002.9 |
| 20260506123549 | 48 | 337 | 7.0 | 10.0 | 0.00 | 0.55 | 0.00 | 89 | 1002.9 |
| 20260506123049 | 48 | 0 | 5.0 | 11.0 | 0.00 | 0.55 | 0.00 | 89 | 1002.6 |
| 20260506122549 | 49 | 0 | 6.0 | 12.0 | 0.00 | 0.55 | 0.00 | 90 | 1002.7 |
| 20260506122049 | 48 | 0 | 5.0 | 10.0 | 0.00 | 0.55 | 0.00 | 90 | 1002.6 |
| 20260506121549 | 48 | 337 | 8.0 | 13.0 | 0.00 | 0.55 | 0.00 | 90 | 1002.6 |
| 20260506121049 | 48 | 0 | 5.0 | 12.0 | 0.00 | 0.55 | 0.00 | 89 | 1002.5 |
| 20260506120549 | 48 | 0 | 6.0 | 8.0 | 0.00 | 0.59 | 0.00 | 89 | 1002.6 |
| 20260506120049 | 48 | 0 | 8.0 | 10.0 | 0.00 | 0.59 | 0.00 | 89 | 1002.5 |
| 20260506115549 | 48 | 0 | 7.0 | 10.0 | 0.00 | 0.59 | 0.00 | 89 | 1002.5 |
| 20260506115049 | 48 | 0 | 8.0 | 9.0 | 0.00 | 0.59 | 0.00 | 88 | 1002.5 |
| 20260506114549 | 48 | 0 | 7.0 | 12.0 | 0.00 | 0.59 | 0.00 | 89 | 1002.4 |
| 20260506114049 | 48 | 337 | 9.0 | 12.0 | 0.00 | 0.59 | 0.00 | 89 | 1002.4 |
| 20260506113549 | 48 | 337 | 6.0 | 11.0 | 0.00 | 0.59 | 0.00 | 89 | 1002.4 |
| 20260506113049 | 48 | 337 | 9.0 | 10.0 | 0.00 | 0.59 | 0.00 | 88 | 1002.3 |
| 20260506112549 | 48 | 337 | 7.0 | 11.0 | 0.00 | 0.59 | 0.00 | 88 | 1002.4 |
| 20260506112049 | 48 | 337 | 10.0 | 12.0 | 0.00 | 0.59 | 0.00 | 87 | 1002.5 |
| 20260506111549 | 48 | 337 | 10.0 | 12.0 | 0.00 | 0.59 | 0.00 | 87 | 1002.5 |
| 20260506111049 | 49 | 337 | 9.0 | 11.0 | 0.00 | 0.59 | 0.00 | 86 | 1002.4 |
| 20260506110549 | 49 | 0 | 6.0 | 11.0 | 0.00 | 0.59 | 0.00 | 86 | 1002.3 |
| 20260506110049 | 49 | 0 | 9.0 | 11.0 | 0.00 | 0.59 | 0.00 | 86 | 1002.4 |
| 20260506105549 | 49 | 337 | 8.0 | 14.0 | 0.00 | 0.59 | 0.00 | 86 | 1002.2 |
| 20260506105049 | 49 | 337 | 12.0 | 13.0 | 0.00 | 0.59 | 0.00 | 87 | 1002.2 |
| 20260506104549 | 49 | 337 | 10.0 | 11.0 | 0.00 | 0.59 | 0.00 | 87 | 1002.0 |
| 20260506104049 | 49 | 337 | 12.0 | 13.0 | 0.00 | 0.59 | 0.00 | 87 | 1002.2 |
| 20260506103549 | 49 | 337 | 12.0 | 16.0 | 0.00 | 0.59 | 0.00 | 87 | 1002.2 |
| 20260506103049 | 49 | 337 | 10.0 | 13.0 | 0.00 | 0.59 | 0.00 | 88 | 1002.0 |
| 20260506102549 | 49 | 0 | 8.0 | 11.0 | 0.00 | 0.59 | 0.00 | 87 | 1002.0 |
| 20260506102051 | 49 | 0 | 7.0 | 12.0 | 0.00 | 0.59 | 0.00 | 87 | 1002.1 |
| 20260506101549 | 49 | 337 | 11.0 | 13.0 | 0.00 | 0.59 | 0.00 | 87 | 1002.0 |
| 20260506101049 | 49 | 337 | 9.0 | 12.0 | 0.00 | 0.59 | 0.00 | 87 | 1002.1 |
| 20260506100549 | 49 | 0 | 9.0 | 12.0 | 0.00 | 0.59 | 0.00 | 87 | 1002.2 |
| 20260506100050 | 49 | 337 | 9.0 | 11.0 | 0.00 | 0.59 | 0.00 | 87 | 1002.1 |
| 20260506095550 | 49 | 337 | 9.0 | 14.0 | 0.00 | 0.59 | 0.00 | 87 | 1002.1 |
| 20260506095050 | 49 | 337 | 9.0 | 14.0 | 0.00 | 0.59 | 0.00 | 87 | 1002.0 |
| 20260506094550 | 50 | 337 | 12.0 | 16.0 | 0.00 | 0.59 | 0.00 | 87 | 1001.8 |
| 20260506094050 | 50 | 0 | 9.0 | 12.0 | 0.00 | 0.59 | 0.00 | 87 | 1001.7 |
| 20260506093550 | 50 | 337 | 11.0 | 14.0 | 0.00 | 0.59 | 0.00 | 88 | 1001.8 |